TimeEST,TemperatureF,Dew PointF,Humidity,Sea Level PressureIn,VisibilityMPH,Wind Direction,Wind SpeedMPH,Gust SpeedMPH,PrecipitationIn,Events,Conditions,WindDirDegrees,DateUTC
12:58 AM,49.3,35.6,59,30.21,10.0,Variable,3.5,-,N/A,,Clear,0,2013-11-11 05:58:00
1:58 AM,54.7,33.1,44,30.24,10.0,NNE,8.1,-,N/A,,Clear,20,2013-11-11 06:58:00
2:58 AM,52.3,31.5,45,30.25,10.0,NE,8.1,-,N/A,,Clear,50,2013-11-11 07:58:00
3:58 AM,50.9,30.4,45,30.26,10.0,ENE,8.1,-,N/A,,Clear,60,2013-11-11 08:58:00
4:58 AM,49.8,29.5,46,30.28,10.0,ENE,8.1,-,N/A,,Clear,60,2013-11-11 09:58:00
5:58 AM,47.7,28.6,48,30.29,10.0,Variable,6.9,-,N/A,,Clear,0,2013-11-11 10:58:00
6:58 AM,45.1,28.8,53,30.31,10.0,Variable,4.6,-,N/A,,Clear,0,2013-11-11 11:58:00
7:58 AM,47.1,29.1,50,30.33,10.0,ENE,8.1,-,N/A,,Clear,60,2013-11-11 12:58:00
8:58 AM,50.4,29.7,45,30.34,10.0,ENE,10.4,-,N/A,,Clear,60,2013-11-11 13:58:00
9:58 AM,53.8,29.7,40,30.34,10.0,ENE,10.4,-,N/A,,Clear,60,2013-11-11 14:58:00
10:58 AM,56.8,30.0,36,30.33,10.0,East,8.1,-,N/A,,Clear,80,2013-11-11 15:58:00
11:58 AM,59.5,30.7,34,30.31,10.0,East,8.1,-,N/A,,Clear,80,2013-11-11 16:58:00
12:58 PM,61.7,30.6,31,30.27,10.0,East,4.6,-,N/A,,Clear,100,2013-11-11 17:58:00
1:58 PM,63.3,30.6,29,30.24,10.0,East,3.5,-,N/A,,Clear,100,2013-11-11 18:58:00
2:58 PM,64.4,31.1,29,30.23,10.0,Calm,Calm,-,N/A,,Clear,0,2013-11-11 19:58:00
3:58 PM,63.5,30.7,29,30.22,10.0,East,4.6,-,N/A,,Clear,90,2013-11-11 20:58:00
4:58 PM,60.8,34.5,37,30.22,10.0,East,2.3,-,N/A,,Clear,90,2013-11-11 21:58:00
5:58 PM,52.2,37.6,58,30.22,10.0,Calm,Calm,-,N/A,,Clear,0,2013-11-11 22:58:00
6:58 PM,45.3,37.9,75,30.22,10.0,Calm,Calm,-,N/A,,Clear,0,2013-11-11 23:58:00
7:58 PM,42.6,36.9,80,30.21,10.0,Calm,Calm,-,N/A,,Clear,0,2013-11-12 00:58:00
8:58 PM,40.3,34.9,81,30.21,10.0,Calm,Calm,-,N/A,,Clear,0,2013-11-12 01:58:00
9:58 PM,40.6,36.9,86,30.21,10.0,WNW,1.2,-,N/A,,Clear,300,2013-11-12 02:58:00
10:58 PM,38.5,36.0,91,30.21,10.0,NNW,2.3,-,N/A,,Clear,330,2013-11-12 03:58:00
11:58 PM,36.9,34.5,91,30.19,10.0,NNW,3.5,-,N/A,,Clear,330,2013-11-12 04:58:00